Weather History for KPSP - January, 2013

Change the Weather History Date:

Thursday, January 17, 2013

  Actual Average Record
Temperature  
Mean Temperature 61 °F 58 °F  
Max Temperature 73 °F 69 °F 89 °F (2011)
Min Temperature 49 °F 46 °F 28 °F (1964)
Degree Days  
Heating Degree Days 4 8  
Month to date heating degree days 211 142  
Since 1 July heating degree days 512 528  
Cooling Degree Days 0 0  
Month to date cooling degree days 0 0  
Year to date cooling degree days 0 0  
Growing Degree Days 12 (Base 50)    
Moisture  
Dew Point 15 °F    
Average Humidity 21    
Maximum Humidity 32    
Minimum Humidity 9    
Precipitation  
Precipitation 0.00 in 0.04 in 1.00 in (1916)
Month to date precipitation T 0.72  
Year to date precipitation T 0.72  
Since 1 July precipitation 1.22 3.52  
Snow  
Snow 0.00 in - - ()
Month to date snowfall 0.0  
Year to date snowfall 0.0  
Since 1 July snowfall 0.0  
Snow Depth 0.00 in    
Sea Level Pressure  
Sea Level Pressure 30.22 in    
Wind  
Wind Speed 4 mph (West)    
Max Wind Speed 10 mph    
Max Gust Speed 13 mph    
Visibility 10 miles    
Events      
T = Trace of Precipitation, MM = Missing Value Source: NWS Daily Summary

Daily Weather History Graph

Daily Weather History Graph

Search for Another Location

Airport or City:

Trip Planner

Search our weather history database for the weather conditions in past years. The results will help you decide how hot, cold, wet, or windy it might be!

Date:

Astronomy

Jan. 17, 2013 Rise Set
Actual Time 6:50 AM PST 5:02 PM PST
Civil Twilight 6:23 AM PST 5:29 PM PST
Nautical Twilight 5:52 AM PST 6:00 PM PST
Astronomical Twilight 5:22 AM PST 6:30 PM PST
Moon 10:20 AM PST (1/17) 11:35 PM PST (1/17)
Length of Visible Light 11h 06m
Length of Day
10h 12m
Waxing Crescent, 39% of the Moon is Illuminated
Jan 17
Waxing Crescent
Jan 18
First Quarter
Jan 26
Full
Feb 3
Last Quarter
Feb 9
New

Hourly Weather History & Observations

Time (PST) Temp. Dew Point Humidity Pressure Visibility Wind Dir Wind Speed Gust Speed Precip Events Conditions
1:53 AM 55.0 °F 19.9 °F 25% 30.25 in 10.0 mi WSW 5.8 mph - N/A   Clear
2:53 AM 55.9 °F 16.0 °F 21% 30.24 in 10.0 mi WSW 8.1 mph - N/A   Clear
4:53 AM 51.1 °F 18.0 °F 27% 30.25 in 10.0 mi West 3.5 mph - N/A   Clear
5:53 AM 53.1 °F 17.1 °F 24% 30.25 in 10.0 mi West 6.9 mph - N/A   Clear
6:53 AM 54.0 °F 16.0 °F 22% 30.27 in 10.0 mi West 8.1 mph - N/A   Clear
7:53 AM 57.0 °F 16.0 °F 20% 30.28 in 10.0 mi WSW 6.9 mph - N/A   Clear
8:53 AM 64.0 °F 12.9 °F 14% 30.30 in 10.0 mi North 6.9 mph - N/A   Clear
9:53 AM 66.0 °F 17.1 °F 15% 30.30 in 10.0 mi East 3.5 mph - N/A   Clear
10:53 AM 70.0 °F 12.0 °F 11% 30.27 in 10.0 mi Calm Calm - N/A   Clear
11:53 AM 71.1 °F 10.9 °F 10% 30.23 in 10.0 mi Calm Calm - N/A   Clear
12:53 PM 71.1 °F 10.9 °F 10% 30.19 in 10.0 mi South 6.9 mph - N/A   Clear
1:53 PM 73.0 °F 10.0 °F 9% 30.16 in 10.0 mi Calm Calm - N/A   Clear
2:53 PM 73.0 °F 10.9 °F 9% 30.15 in 10.0 mi Calm Calm - N/A   Clear
3:53 PM 73.0 °F 12.0 °F 10% 30.16 in 10.0 mi SSW 3.5 mph - N/A   Clear
4:53 PM 68.0 °F 15.1 °F 13% 30.17 in 10.0 mi SW 4.6 mph - N/A   Clear
5:53 PM 68.0 °F 14.0 °F 12% 30.19 in 10.0 mi NW 3.5 mph - N/A   Clear
6:53 PM 62.1 °F 16.0 °F 17% 30.21 in 10.0 mi WNW 5.8 mph - N/A   Clear
7:53 PM 60.1 °F 16.0 °F 18% 30.21 in 10.0 mi WNW 3.5 mph - N/A   Clear
8:53 PM 59.0 °F 14.0 °F 17% 30.21 in 10.0 mi WSW 5.8 mph - N/A   Clear
9:53 PM 57.9 °F 15.1 °F 19% 30.20 in 10.0 mi West 5.8 mph - N/A   Clear
10:53 PM 54.0 °F 15.1 °F 22% 30.21 in 10.0 mi NNW 6.9 mph - N/A   Clear
11:53 PM 55.9 °F 15.1 °F 20% 30.21 in 10.0 mi West 5.8 mph - N/A   Clear